Limon, CO

6:06 PM MST on February 24, 2017 (GMT -0700)
Limon Municipal

Weather History for KLIC - November, 2012

Change the Weather History Date:

Tuesday, November 6, 2012

  Actual Average Record
Temperature  
Mean Temperature 46 °F -  
Max Temperature 65 °F - 73 °F (1999)
Min Temperature 27 °F - 6 °F (2013)
Degree Days  
Heating Degree Days 19    
Month to date heating degree days 125  
Cooling Degree Days 0    
Month to date cooling degree days 0  
Moisture  
Dew Point 27 °F    
Average Humidity 57    
Maximum Humidity 85    
Minimum Humidity 24    
Precipitation  
Precipitation 0.00 in - 0.01 in (1998)
Month to date precipitation 0.00  
Year to date precipitation 9.29  
Sea Level Pressure  
Sea Level Pressure 30.19 in    
Wind  
Wind Speed 4 mph (North)    
Max Wind Speed 15 mph    
Max Gust Speed 18 mph    
Visibility 10 miles    
Events      
T = Trace of Precipitation, MM = Missing Value Source: NWS Daily Summary

Daily Weather History Graph

Daily Weather History Graph

Search for Another Location

Airport or City:

Trip Planner

Search our weather history database for the weather conditions in past years. The results will help you decide how hot, cold, wet, or windy it might be!

Date:

Astronomy

Nov. 06, 2012 Rise Set
Actual Time 6:28 AM MST 4:47 PM MST
Civil Twilight 6:00 AM MST 5:15 PM MST
Nautical Twilight 5:28 AM MST 5:47 PM MST
Astronomical Twilight 4:57 AM MST 6:18 PM MST
Moon 11:28 PM MST (11/6) 12:22 PM MST (11/6)
Length of Visible Light 11h 15m
Length of Day
10h 18m
Waning Gibbous, 52% of the Moon is Illuminated
Nov 6
Waning Gibbous
Nov 6
Last Quarter
Nov 13
New
Nov 20
First Quarter
Nov 28
Full

Hourly Weather History & Observations

Time (MST) Temp. Windchill Dew Point Humidity Pressure Visibility Wind Dir Wind Speed Gust Speed Precip Events Conditions
12:55 AM 39.0 °F - 27.0 °F 62% 30.11 in 10.0 mi Calm Calm - N/A   Clear
1:55 AM 41.0 °F 37.1 °F 27.0 °F 57% 30.12 in 10.0 mi North 5.8 mph - N/A   Clear
2:55 AM 30.0 °F 24.1 °F 25.0 °F 82% 30.15 in 10.0 mi NNW 5.8 mph - N/A   Clear
3:55 AM 28.9 °F 23.9 °F 24.1 °F 82% 30.17 in 10.0 mi North 4.6 mph - N/A   Clear
4:55 AM 28.0 °F 24.2 °F 24.1 °F 85% 30.22 in 10.0 mi North 3.5 mph - N/A   Clear
5:55 AM 30.0 °F - 25.0 °F 82% 30.25 in 10.0 mi Calm Calm - N/A   Clear
6:55 AM 37.0 °F 33.3 °F 28.0 °F 70% 30.24 in 10.0 mi WNW 4.6 mph - N/A   Clear
7:55 AM 51.1 °F - 32.0 °F 48% 30.25 in 10.0 mi NNE 9.2 mph - N/A   Clear
8:55 AM 54.0 °F - 30.9 °F 41% 30.25 in 10.0 mi North 10.4 mph - N/A   Clear
9:55 AM 57.0 °F - 30.9 °F 37% 30.25 in 10.0 mi North 10.4 mph - N/A   Clear
10:55 AM 59.0 °F - 30.9 °F 35% 30.23 in 10.0 mi NNE 5.8 mph - N/A   Clear
11:55 AM 61.0 °F - 30.0 °F 31% 30.19 in 10.0 mi NE 4.6 mph - N/A   Clear
12:55 PM 61.0 °F - 30.0 °F 31% 30.15 in 10.0 mi Calm Calm - N/A   Clear
1:55 PM 62.1 °F - 28.0 °F 28% 30.11 in 10.0 mi Calm Calm - N/A   Clear
2:55 PM 64.0 °F - 26.1 °F 24% 30.15 in 10.0 mi Calm Calm - N/A   Clear
3:55 PM 63.0 °F - 25.0 °F 24% 30.16 in 10.0 mi NNE 3.5 mph - N/A   Clear
4:55 PM 51.1 °F - 28.0 °F 41% 30.21 in 10.0 mi NE 8.1 mph - N/A   Clear
5:55 PM 43.0 °F - 28.0 °F 56% 30.25 in 10.0 mi Calm Calm - N/A   Clear
6:55 PM 37.9 °F - 26.1 °F 62% 30.24 in 10.0 mi Calm Calm - N/A   Clear
7:55 PM 30.9 °F 26.2 °F 24.1 °F 76% 30.21 in 10.0 mi North 4.6 mph - N/A   Clear
8:55 PM 34.0 °F 28.0 °F 26.1 °F 73% 30.19 in 10.0 mi North 6.9 mph - N/A   Clear
9:55 PM 30.0 °F 25.2 °F 25.0 °F 82% 30.19 in 10.0 mi NNW 4.6 mph - N/A   Clear
10:55 PM 30.0 °F 23.2 °F 25.0 °F 82% 30.17 in 10.0 mi North 6.9 mph - N/A   Clear
11:55 PM 28.9 °F 23.9 °F 25.0 °F 85% 30.16 in 10.0 mi North 4.6 mph - N/A   Clear